User: anonymous   Login
Location: Unspecified
(0.0000°N, 0.0000°E)
Time: 04:49:24
(UTC+00:00)
Language:

Skynet 4D - Orbit

View from above orbital plane
View from above orbital plane
View from above satellite
View from above satellite

Ground track
Ground track

The orbit data is extracted from the following two-line orbital elements,

1 25134U 98002A   18266.77995503 -.00000240 +00000-0 +00000-0 0  9999
2 25134 010.9366 027.8088 0002219 112.9336 261.8527 00.99153532075385
Epoch (UTC): 23 September 2018 18:43:08
Eccentricity: 0.0002219
inclination: 10.9366°
perigee height: 36093 km
apogee height: 36112 km
right ascension of ascending node: 27.8088°
argument of perigee: 112.9336°
revolutions per day: 0.99153532
mean anomaly at epoch: 261.8527°
orbit number at epoch: 7538

The dashed part of the orbit path shows where the satellite is in the earth's shadow,  

DLR